Regional Weather Roundup
Issued by NWS

Home | Current Version | Previous Version | Text Only | Print | Product List | Glossary On
Versions: 1 2 3 4 5 6 7 8 9 10 11 12 13 14 15 16 17 18 19 20 21 22 23 24 25 26 27 28 29 30 31 32 33 34 35 36 37 38 39 40 41 42 43 44 45 46 47 48 49 50
000
ASUS45 KPSR 301900
RWRAZ

PRELIMINARY ARIZONA REGIONAL HOURLY WEATHER ROUNDUP
NATIONAL WEATHER SERVICE PHOENIX AZ
1200 PM MST THU OCT 30 2014

NOTE: FAIR INDICATES FEW OR NO CLOUDS BELOW 12,000 FEET WITH NO
SIGNIFICANT WEATHER AND/OR OBSTRUCTIONS TO VISIBILITY.

AZZ001>003-036-302000-
NORTHWEST ARIZONA

CITY           SKY/WX    TMP DP  RH WIND       PRES   REMARKS
KINGMAN        MOSUNNY   82  33  17 E14       30.12F
$$

AZZ004>008-015-016-018-302000-
NORTH CENTRAL ARIZONA

CITY           SKY/WX    TMP DP  RH WIND       PRES   REMARKS
GRAND CANYON   SUNNY     69  16  13 E9        30.33F
PRESCOTT       SUNNY     75  28  17 SE8       30.23F
FLAGSTAFF      SUNNY     66  25  21 E7        30.35F
PAYSON         SUNNY     75  32  20 S8G16     30.26F
PAGE           SUNNY     64  22  20 NW6       30.28F
$$

AZZ009>014-017-302000-
NORTHEAST ARIZONA

CITY           SKY/WX    TMP DP  RH WIND       PRES   REMARKS
WINSLOW        NOT AVBL
SAINT JOHNS    SUNNY     72  21  14 NE9       30.28F
WINDOW ROCK    SUNNY     70  14  11 VRB5      30.35F
$$

AZZ023-302000-
GREATER PHOENIX AREA

CITY           SKY/WX    TMP DP  RH WIND       PRES   REMARKS
PHOENIX        PTSUNNY   87  39  18 NE6       29.98F
BUCKEYE          N/A     86  41  20 E9        29.99F
GLENDALE       MOSUNNY   88  39  18 NE7       30.01F
DEER VALLEY    SUNNY     85  38  18 S3        30.00F
SCOTTSDALE     SUNNY     86  39  19 CALM      30.02F
MESA-GATEWAY   MOSUNNY   82  43  24 NW3       30.03F
CHANDLER       MOSUNNY   82  43  24 N7        30.00F
$$

AZZ027-028-302000-
SOUTHWEST MARICOPA COUNTY AND PINAL COUNTY

CITY           SKY/WX    TMP DP  RH WIND       PRES   REMARKS
CASA GRANDE    MOSUNNY   84  43  23 CALM      30.01F
GILA BEND      MOCLDY    88  41  19 VRB2      29.98F
$$

AZZ503-504-507>509-302000-
SOUTHEAST ARIZONA

CITY           SKY/WX    TMP DP  RH WIND       PRES   REMARKS
TUCSON         SUNNY     89  35  14 E8        30.07F
DAVIS-MONTHAN  MOSUNNY   87  38  17 NE5       30.05F
RYAN FIELD       N/A     88  43  20 E12       30.06F
NOGALES        SUNNY     83  40  21 SW3       30.13F
SIERRA VISTA   PTSUNNY   79  39  24 E7        30.20F
SAFFORD        SUNNY     79  37  22 SE8       30.14F
$$

AZZ020-021-025-026-031-302000-
SOUTHWEST ARIZONA

CITY           SKY/WX    TMP DP  RH WIND       PRES   REMARKS
YUMA           PTSUNNY   88  35  15 NE9       29.94F
$$

CAZ031-033-041-043-047-048-061-302000-
SOUTHERN CALIFORNIA

CITY           SKY/WX    TMP DP  RH WIND       PRES   REMARKS
DOWNTOWN L.A.  SUNNY     79  49  34 VRB3      29.97S
L.A. AIRPORT   MOSUNNY   73  62  68 SW9       29.99S
SAN DIEGO      MOSUNNY   74  45  35 SW6       30.00F
BURBANK        SUNNY     79  44  28 S5        29.98F
ONTARIO        PTSUNNY   75  43  31 SW3       29.99F
RIVERSIDE      PTSUNNY   75  45  34 VRB3      29.99F
PALM SPRINGS   PTSUNNY   87  34  15 SE3       29.97F
EL CENTRO NAS  PTSUNNY   87  28  12 CALM      29.94F
IMPERIAL       PTSUNNY   86  33  15 W5        29.94F
BLYTHE         PTSUNNY   82  27  13 SE3       29.98F
$$

NVZ020-UTZ003-302000-
SOUTHERN NEVADA-UTAH

CITY           SKY/WX    TMP DP  RH WIND       PRES   REMARKS
LAS VEGAS      NOT AVBL
SALT LAKE CITY MOSUNNY   65  28  24 NW6       30.23F
$$

NMZ009-TXZ055-302000-
NEW MEXICO-WEST TEXAS

CITY           SKY/WX    TMP DP  RH WIND       PRES   REMARKS
ALBUQUERQUE    SUNNY     67  18  15 NE5       30.32F
EL PASO        SUNNY     77  40  26 N10       30.20F
$$


........................KEY........................
SKY/WX - SKY CONDITION/WEATHER
TMP    - TEMPERATURE IN FAHRENHEIT
DP     - DEW POINT IN FAHRENHEIT
RH     - RELATIVE HUMIDITY IN PERCENT
WIND   - DIRECTION AND SPEED IN MILES PER HOUR (MPH)
VRB    - VARIABLE WIND DIRECTION
PRES   - MEAN SEA LEVEL PRESSURE IN INCHES OF MERCURY
         F - FALLING PRESSURE   R - RISING PRESSURE
         S - STEADY PRESSURE
VSB    - VISIBILITY IN MILES
HX     - HEAT INDEX IN FAHRENHEIT
WCI    - WIND CHILL INDEX IN FAHRENHEIT
TC     - TEMPERATURE IN CELSIUS WHICH IS ALSO KNOWN AS
         TEMPERATURE IN CENTIGRADE
AFB    - AIR FORCE BASE
         LUKE AFB IS LUKE AIR FORCE BASE
         DAVIS-MONTHAN IS DAVIS-MONTHAN AIR FORCE BASE
NAS    - NAVAL AIR STATION
         EL CENTRO NAS IS EL CENTRO NAVAL AIR STATION
N/A    - NOT AVAILABLE



USA.gov is the U.S. government's official web portal to all federal, state and local government web resources and services.